sat.trackr.live / text

‹ back to catalog

STARLINK-34291

NORAD 64359 · 2025-126R

PAYLOAD ACTIVE UNKNOWN

§ Identity

Operator
Country
US
Launch date
2025-06-13
Launch site
AFWTR
Launch vehicle
Mass (kg)
RCS (m²)

Purposes: comms

External: N2YO · Heavens-Above · Gunter

§ Orbital elements

Epoch: 2026-09-20T09:49:02.908416Z

Period
94.14 min
Inclination
70.0011°
Eccentricity
0.0003024
Mean motion
15.29582862 rev/d
Perigee alt
475.0 km
Apogee alt
479.1 km
Semi-major
6,855.2 km
B*
3.4256e-4
RAAN
261.3135°
Arg perigee
270.1266°
Mean anomaly
89.9562°
Rev number
6,990

§ Raw data

STARLINK-342911 64359U 25126R   26263.40906144  .00009733  00000+0  34256-3 0  99942 64359  70.0011 261.3135 0003024 270.1266  89.9562 15.29582862 69903

JSON: /api/v1/satellites/64359 · /tle

For live sub-satellite position, see the globe view (requires WebGL).

§ Visibility from observer

Set your observer location to see the next 7 days of passes ≥ 10°. The values pass through the URL so the page stays shareable.

No JS? Fill the form by hand. The geolocation button needs JavaScript.